This demonstration page uses our WeatherBlox Daily Observations layout. Learn more.

38.89511, -77.03637

Hourly Observations for November 2, 2017

Temp ( °F °C ) Dew Point ( °F °C ) Humidity (%) Winds ( mph kmh ) Pressure ( in mb ) Visibility ( mi km ) Precip ( " mm )
12:52 am 00:52 Cloudy 53 11.7 47 8.3 80 80 N 5 7 30.21 1023 10 16.09344 0 0
1:52 am 01:52 Cloudy 53 11.7 47 8.3 80 80 N 5 7 30.21 1023 10 16.09344 0 0
2:52 am 02:52 Mostly Cloudy 52 11.1 48 8.9 86 86 N 3 6 30.21 1023 10 16.09344 0 0
3:52 am 03:52 Cloudy 52 11.1 48 8.9 86 86 Calm 30.21 1023 10 16.09344 0 0
4:52 am 04:52 Cloudy 53 11.7 50 10 89 89 Calm 30.21 1023 10 16.09344 0 0
5:52 am 05:52 Cloudy 53 11.7 50 10 89 89 Calm 30.21 1023 10 16.09344 0 0
6:52 am 06:52 Cloudy 54 12.2 51 10.6 90 90 S 3 6 30.24 1024 10 16.09344 0.001 0.001
7:52 am 07:52 Mostly Cloudy 54 12.2 52 11.1 93 93 S 3 6 30.21 1023 10 16.09344 0 0
8:52 am 08:52 Mostly Cloudy 56 13.3 55 12.8 97 97 SSE 3 6 30.24 1024 10 16.09344 0 0
9:52 am 09:52 Mostly Cloudy 59 15 56 13.3 90 90 SSE 6 9 30.24 1024 10 16.09344 0 0
10:52 am 10:52 Partly Cloudy 63 17.2 58 14.4 84 84 S 10 17 30.24 1024 10 16.09344 0 0
11:52 am 11:52 Mostly Sunny 70 21.1 58 14.4 66 66 SSW 7 11 30.24 1024 10 16.09344 0 0
12:52 pm 12:52 Partly Cloudy 70 21.1 58 14.4 66 66 S 10 17 30.21 1023 10 16.09344 0 0
1:52 pm 13:52 Mostly Sunny 73 22.8 59 15 62 62 S 14 22 30.18 1022 10 16.09344 0 0
2:52 pm 14:52 Mostly Sunny 75 23.9 59 15 58 58 S 10 17 30.15 1021 10 16.09344 0 0
3:52 pm 15:52 Partly Cloudy 76 24.4 58 14.4 54 54 S 12 19 30.15 1021 10 16.09344 0 0
4:52 pm 16:52 Partly Cloudy 71 21.7 59 15 66 66 S 10 17 30.15 1021 10 16.09344 0 0
5:52 pm 17:52 Partly Cloudy 69 20.6 59 15 70 70 S 10 17 30.15 1021 10 16.09344 0 0
6:52 pm 18:52 Partly Cloudy 68 20 59 15 73 73 S 9 15 30.15 1021 10 16.09344 0 0
7:52 pm 19:52 Partly Cloudy 65 18.3 59 15 81 81 S 7 11 30.15 1021 10 16.09344 0 0
8:52 pm 20:52 Partly Cloudy 63 17.2 59 15 87 87 S 7 11 30.15 1021 10 16.09344 0 0
9:52 pm 21:52 Partly Cloudy 64 17.8 60 15.6 87 87 S 7 11 30.15 1021 10 16.09344 0 0
10:52 pm 22:52 Mostly Cloudy 62 16.7 58 14.4 86 86 S 8 13 30.15 1021 10 16.09344 0 0
11:52 pm 23:52 Partly Cloudy 61 16.1 58 14.4 90 90 S 7 11 30.15 1021 10 16.09344 0 0

Powered by AerisWeather